Time,TemperatureF,DewpointF,PressureIn,WindDirection,WindDirectionDegrees,WindSpeedMPH,WindSpeedGustMPH,Humidity,HourlyPrecipIn,Conditions,Clouds,dailyrainin,SoftwareType,DateUTC
2013-02-17 00:00:00,33.1,32.1,29.57,NNE,14,5.0,12.0,96,0.01,,,0.05,VWS V14.01,2013-02-17 05:00:00,
2013-02-17 00:05:00,33.1,32.1,29.56,NE,49,7.0,10.0,96,0.01,,,0.00,VWS V14.01,2013-02-17 05:05:00,
2013-02-17 00:10:00,33.1,31.8,29.55,NNE,15,1.0,11.0,95,0.01,,,0.00,VWS V14.01,2013-02-17 05:10:00,
2013-02-17 00:15:00,33.1,31.8,29.55,NE,34,8.0,11.0,95,0.01,,,0.00,VWS V14.01,2013-02-17 05:15:00,
2013-02-17 00:20:00,33.1,31.8,29.55,NNE,21,9.0,12.0,95,0.01,,,0.00,VWS V14.01,2013-02-17 05:20:00,
2013-02-17 00:25:00,33.2,31.7,29.55,North,5,5.0,17.0,94,0.01,,,0.00,VWS V14.01,2013-02-17 05:25:00,
2013-02-17 00:30:00,33.3,31.5,29.56,NNW,342,7.0,17.0,93,0.01,,,0.00,VWS V14.01,2013-02-17 05:30:00,
2013-02-17 00:35:00,33.2,31.4,29.56,NE,40,7.0,13.0,93,0.01,,,0.00,VWS V14.01,2013-02-17 05:35:00,
2013-02-17 00:40:00,32.8,31.0,29.55,North,350,4.0,13.0,93,0.01,,,0.00,VWS V14.01,2013-02-17 05:40:00,
2013-02-17 00:45:00,32.6,30.8,29.55,NW,304,10.0,17.0,93,0.01,,,0.00,VWS V14.01,2013-02-17 05:45:00,
2013-02-17 00:50:00,32.5,31.0,29.55,NE,38,7.0,17.0,94,0.01,,,0.00,VWS V14.01,2013-02-17 05:50:00,
2013-02-17 00:55:00,32.4,30.9,29.55,North,5,3.0,17.0,94,0.01,,,0.00,VWS V14.01,2013-02-17 05:55:00,
2013-02-17 01:00:00,32.4,30.6,29.54,NNE,32,13.0,20.0,93,0.01,,,0.00,VWS V14.01,2013-02-17 06:00:00,
2013-02-17 01:05:00,32.4,30.6,29.53,NNW,338,11.0,14.0,93,0.00,,,0.00,VWS V14.01,2013-02-17 06:05:00,
2013-02-17 01:10:00,32.4,30.3,29.54,NNW,348,6.0,17.0,92,0.00,,,0.00,VWS V14.01,2013-02-17 06:10:00,
2013-02-17 01:15:00,32.3,29.7,29.54,NNE,19,4.0,17.0,90,0.00,,,0.00,VWS V14.01,2013-02-17 06:15:00,
2013-02-17 01:20:00,32.3,29.7,29.54,NNE,12,9.0,19.0,90,0.00,,,0.00,VWS V14.01,2013-02-17 06:20:00,
2013-02-17 01:25:00,32.2,29.0,29.52,North,360,10.0,19.0,88,0.00,,,0.00,VWS V14.01,2013-02-17 06:25:00,
2013-02-17 01:30:00,32.1,29.0,29.52,North,5,4.0,19.0,88,0.00,,,0.00,VWS V14.01,2013-02-17 06:30:00,
2013-02-17 01:35:00,32.0,28.6,29.52,North,5,5.0,13.0,87,0.00,,,0.00,VWS V14.01,2013-02-17 06:35:00,
2013-02-17 01:40:00,31.9,28.5,29.51,North,5,3.0,13.0,87,0.00,,,0.00,VWS V14.01,2013-02-17 06:40:00,
2013-02-17 01:45:00,31.8,28.4,29.51,North,5,5.0,13.0,87,0.00,,,0.00,VWS V14.01,2013-02-17 06:45:00,
2013-02-17 01:50:00,31.7,28.0,29.52,North,5,2.0,13.0,86,0.00,,,0.00,VWS V14.01,2013-02-17 06:50:00,
2013-02-17 01:55:00,31.7,28.0,29.51,North,5,4.0,13.0,86,0.00,,,0.00,VWS V14.01,2013-02-17 06:55:00,
2013-02-17 02:00:00,31.6,27.9,29.52,North,5,2.0,13.0,86,0.00,,,0.00,VWS V14.01,2013-02-17 07:00:00,
2013-02-17 02:05:00,31.5,27.8,29.51,North,5,9.0,13.0,86,0.00,,,0.00,VWS V14.01,2013-02-17 07:05:00,
2013-02-17 02:10:00,31.4,27.7,29.50,North,5,5.0,15.0,86,0.00,,,0.00,VWS V14.01,2013-02-17 07:10:00,
2013-02-17 02:15:00,31.2,27.2,29.49,North,5,4.0,15.0,85,0.00,,,0.00,VWS V14.01,2013-02-17 07:15:00,
2013-02-17 02:20:00,31.1,27.4,29.48,North,5,5.0,15.0,86,0.00,,,0.00,VWS V14.01,2013-02-17 07:20:00,
2013-02-17 02:25:00,30.9,27.2,29.48,North,5,6.0,17.0,86,0.00,,,0.00,VWS V14.01,2013-02-17 07:25:00,
2013-02-17 02:30:00,30.7,27.0,29.48,North,5,2.0,17.0,86,0.00,,,0.00,VWS V14.01,2013-02-17 07:30:00,
2013-02-17 02:35:00,30.6,26.9,29.47,North,5,8.0,13.0,86,0.00,,,0.00,VWS V14.01,2013-02-17 07:35:00,
2013-02-17 02:40:00,30.4,26.4,29.47,North,5,7.0,13.0,85,0.00,,,0.00,VWS V14.01,2013-02-17 07:40:00,
2013-02-17 02:45:00,30.2,26.2,29.47,North,5,5.0,14.0,85,0.00,,,0.00,VWS V14.01,2013-02-17 07:45:00,
2013-02-17 02:50:00,30.1,26.1,29.47,North,5,12.0,14.0,85,0.00,,,0.00,VWS V14.01,2013-02-17 07:50:00,
2013-02-17 02:55:00,30.0,26.0,29.47,North,5,8.0,14.0,85,0.00,,,0.00,VWS V14.01,2013-02-17 07:55:00,
2013-02-17 03:00:00,29.9,26.0,29.47,North,5,10.0,14.0,85,0.00,,,0.00,VWS V14.01,2013-02-17 08:00:00,
2013-02-17 03:05:00,29.8,25.9,29.47,North,5,7.0,10.0,85,0.00,,,0.00,VWS V14.01,2013-02-17 08:05:00,
2013-02-17 03:10:00,29.7,25.8,29.47,North,5,3.0,14.0,85,0.00,,,0.00,VWS V14.01,2013-02-17 08:10:00,
2013-02-17 03:15:00,29.6,25.9,29.47,North,5,3.0,14.0,86,0.00,,,0.00,VWS V14.01,2013-02-17 08:15:00,
2013-02-17 03:20:00,29.4,25.7,29.47,North,5,5.0,14.0,86,0.00,,,0.00,VWS V14.01,2013-02-17 08:20:00,
2013-02-17 03:25:00,29.3,25.9,29.45,North,5,2.0,16.0,87,0.00,,,0.00,VWS V14.01,2013-02-17 08:25:00,
2013-02-17 03:30:00,29.0,25.6,29.44,North,5,7.0,16.0,87,0.00,,,0.00,VWS V14.01,2013-02-17 08:30:00,
2013-02-17 03:35:00,28.8,25.7,29.44,North,5,3.0,11.0,88,0.00,,,0.00,VWS V14.01,2013-02-17 08:35:00,
2013-02-17 03:40:00,28.7,25.6,29.43,North,5,6.0,14.0,88,0.00,,,0.00,VWS V14.01,2013-02-17 08:40:00,
2013-02-17 03:45:00,28.5,25.4,29.43,North,5,5.0,17.0,88,0.00,,,0.00,VWS V14.01,2013-02-17 08:45:00,
2013-02-17 03:50:00,28.4,25.6,29.43,North,5,9.0,17.0,89,0.00,,,0.00,VWS V14.01,2013-02-17 08:50:00,
2013-02-17 03:55:00,28.3,25.5,29.42,North,5,9.0,17.0,89,0.00,,,0.00,VWS V14.01,2013-02-17 08:55:00,
2013-02-17 04:00:00,28.0,25.5,29.42,North,5,8.0,17.0,90,0.00,,,0.00,VWS V14.01,2013-02-17 09:00:00,
2013-02-17 04:05:00,27.9,25.4,29.41,North,5,6.0,8.0,90,0.00,,,0.00,VWS V14.01,2013-02-17 09:05:00,
2013-02-17 04:10:00,27.7,25.4,29.41,North,5,3.0,11.0,91,0.00,,,0.00,VWS V14.01,2013-02-17 09:10:00,
2013-02-17 04:15:00,27.6,25.3,29.41,North,5,9.0,15.0,91,0.00,,,0.00,VWS V14.01,2013-02-17 09:15:00,
2013-02-17 04:20:00,27.4,24.9,29.41,North,5,4.0,15.0,90,0.00,,,0.00,VWS V14.01,2013-02-17 09:20:00,
2013-02-17 04:25:00,27.2,24.7,29.41,North,5,3.0,15.0,90,0.00,,,0.00,VWS V14.01,2013-02-17 09:25:00,
2013-02-17 04:30:00,27.2,24.7,29.42,North,5,4.0,16.0,90,0.00,,,0.00,VWS V14.01,2013-02-17 09:30:00,
2013-02-17 04:35:00,27.1,24.6,29.41,North,5,5.0,16.0,90,0.00,,,0.00,VWS V14.01,2013-02-17 09:35:00,
2013-02-17 04:40:00,27.1,24.6,29.42,North,5,9.0,16.0,90,0.00,,,0.00,VWS V14.01,2013-02-17 09:40:00,
2013-02-17 04:45:00,27.0,24.5,29.42,North,5,9.0,16.0,90,0.00,,,0.00,VWS V14.01,2013-02-17 09:45:00,
2013-02-17 04:50:00,26.8,24.3,29.41,North,5,6.0,16.0,90,0.00,,,0.00,VWS V14.01,2013-02-17 09:50:00,
2013-02-17 04:55:00,26.6,24.1,29.40,North,5,4.0,17.0,90,0.00,,,0.00,VWS V14.01,2013-02-17 09:55:00,
2013-02-17 05:00:00,26.4,24.1,29.40,North,5,4.0,17.0,91,0.00,,,0.00,VWS V14.01,2013-02-17 10:00:00,
2013-02-17 05:05:00,26.3,24.0,29.40,North,5,8.0,9.0,91,0.00,,,0.00,VWS V14.01,2013-02-17 10:05:00,
2013-02-17 05:10:00,26.1,23.8,29.39,North,5,7.0,15.0,91,0.00,,,0.00,VWS V14.01,2013-02-17 10:10:00,
2013-02-17 05:15:00,25.9,23.6,29.39,North,5,1.0,15.0,91,0.00,,,0.00,VWS V14.01,2013-02-17 10:15:00,
2013-02-17 05:20:00,25.8,23.5,29.38,North,5,9.0,15.0,91,0.00,,,0.00,VWS V14.01,2013-02-17 10:20:00,
2013-02-17 05:25:00,25.6,23.3,29.38,North,5,6.0,15.0,91,0.00,,,0.00,VWS V14.01,2013-02-17 10:25:00,
2013-02-17 05:30:00,25.4,23.4,29.38,North,5,4.0,15.0,92,0.00,,,0.00,VWS V14.01,2013-02-17 10:30:00,
2013-02-17 05:35:00,25.2,23.2,29.37,North,5,5.0,14.0,92,0.00,,,0.00,VWS V14.01,2013-02-17 10:35:00,
2013-02-17 05:40:00,25.0,23.0,29.37,North,5,5.0,15.0,92,0.00,,,0.00,VWS V14.01,2013-02-17 10:40:00,
2013-02-17 05:45:00,24.8,23.1,29.38,North,5,7.0,16.0,93,0.00,,,0.00,VWS V14.01,2013-02-17 10:45:00,
2013-02-17 05:50:00,24.7,23.0,29.36,North,5,4.0,16.0,93,0.00,,,0.00,VWS V14.01,2013-02-17 10:50:00,
2013-02-17 05:55:00,24.6,22.9,29.35,North,5,9.0,16.0,93,0.00,,,0.00,VWS V14.01,2013-02-17 10:55:00,
2013-02-17 06:00:00,24.6,22.9,29.36,North,5,9.0,16.0,93,0.00,,,0.00,VWS V14.01,2013-02-17 11:00:00,
2013-02-17 06:05:00,24.5,23.0,29.35,North,5,10.0,12.0,94,0.00,,,0.00,VWS V14.01,2013-02-17 11:05:00,
2013-02-17 06:10:00,24.1,22.4,29.35,North,5,6.0,17.0,93,0.00,,,0.00,VWS V14.01,2013-02-17 11:10:00,
2013-02-17 06:15:00,23.6,21.9,29.34,North,5,5.0,17.0,93,0.00,,,0.00,VWS V14.01,2013-02-17 11:15:00,
2013-02-17 06:20:00,23.4,21.7,29.34,North,5,6.0,18.0,93,0.00,,,0.00,VWS V14.01,2013-02-17 11:20:00,
2013-02-17 06:25:00,23.3,21.6,29.34,North,5,6.0,18.0,93,0.00,,,0.00,VWS V14.01,2013-02-17 11:25:00,
2013-02-17 06:30:00,23.2,21.5,29.33,North,5,5.0,18.0,93,0.00,,,0.00,VWS V14.01,2013-02-17 11:30:00,
2013-02-17 06:35:00,23.1,21.4,29.33,North,5,6.0,15.0,93,0.00,,,0.00,VWS V14.01,2013-02-17 11:35:00,
2013-02-17 06:40:00,23.0,21.3,29.32,North,5,3.0,18.0,93,0.00,,,0.00,VWS V14.01,2013-02-17 11:40:00,
2013-02-17 06:45:00,23.1,21.4,29.32,North,5,6.0,18.0,93,0.00,,,0.00,VWS V14.01,2013-02-17 11:45:00,
2013-02-17 06:50:00,22.9,21.2,29.32,North,5,7.0,18.0,93,0.00,,,0.00,VWS V14.01,2013-02-17 11:50:00,
2013-02-17 06:55:00,22.8,21.3,29.32,North,5,8.0,18.0,94,0.00,,,0.00,VWS V14.01,2013-02-17 11:55:00,
2013-02-17 07:00:00,22.7,21.2,29.32,North,5,7.0,18.0,94,0.00,,,0.00,VWS V14.01,2013-02-17 12:00:00,
2013-02-17 07:05:00,22.5,20.8,29.31,North,5,12.0,15.0,93,0.00,,,0.00,VWS V14.01,2013-02-17 12:05:00,
2013-02-17 07:10:00,22.3,20.6,29.31,North,5,8.0,17.0,93,0.00,,,0.00,VWS V14.01,2013-02-17 12:10:00,
2013-02-17 07:15:00,22.1,20.6,29.31,North,5,10.0,17.0,94,0.00,,,0.00,VWS V14.01,2013-02-17 12:15:00,
2013-02-17 07:20:00,22.0,20.3,29.31,North,5,1.0,17.0,93,0.00,,,0.00,VWS V14.01,2013-02-17 12:20:00,
2013-02-17 07:25:00,21.9,20.2,29.30,North,5,7.0,17.0,93,0.00,,,0.00,VWS V14.01,2013-02-17 12:25:00,
2013-02-17 07:30:00,21.8,20.3,29.30,North,5,6.0,17.0,94,0.00,,,0.00,VWS V14.01,2013-02-17 12:30:00,
2013-02-17 07:35:00,21.7,20.2,29.29,North,5,3.0,15.0,94,0.00,,,0.00,VWS V14.01,2013-02-17 12:35:00,
2013-02-17 07:40:00,21.7,20.2,29.30,North,5,7.0,19.0,94,0.00,,,0.00,VWS V14.01,2013-02-17 12:40:00,
2013-02-17 07:45:00,21.5,20.0,29.30,North,5,7.0,19.0,94,0.00,,,0.00,VWS V14.01,2013-02-17 12:45:00,
2013-02-17 07:50:00,21.5,20.0,29.29,North,5,6.0,19.0,94,0.00,,,0.00,VWS V14.01,2013-02-17 12:50:00,
2013-02-17 07:55:00,20.8,17.8,29.29,SW,214,9.0,19.0,88,0.00,,,0.00,VWS V14.01,2013-02-17 12:55:00,
2013-02-17 08:00:00,20.7,17.7,29.29,WSW,250,17.0,20.0,88,0.00,,,0.00,VWS V14.01,2013-02-17 13:00:00,
2013-02-17 08:05:00,20.7,18.0,29.29,SW,232,15.0,17.0,89,0.00,,,0.00,VWS V14.01,2013-02-17 13:05:00,
2013-02-17 08:10:00,20.6,17.6,29.29,SW,221,10.0,26.0,88,0.00,,,0.00,VWS V14.01,2013-02-17 13:10:00,
2013-02-17 08:15:00,20.5,17.5,29.28,West,269,12.0,26.0,88,0.00,,,0.00,VWS V14.01,2013-02-17 13:15:00,
2013-02-17 08:20:00,20.6,17.6,29.28,SW,226,9.0,26.0,88,0.00,,,0.00,VWS V14.01,2013-02-17 13:20:00,
2013-02-17 08:25:00,20.4,17.4,29.27,WSW,244,15.0,26.0,88,0.00,,,0.00,VWS V14.01,2013-02-17 13:25:00,
2013-02-17 08:30:00,20.4,17.7,29.27,SSW,194,10.0,26.0,89,0.00,,,0.00,VWS V14.01,2013-02-17 13:30:00,
2013-02-17 08:35:00,20.3,17.6,29.26,WSW,254,16.0,18.0,89,0.00,,,0.00,VWS V14.01,2013-02-17 13:35:00,
2013-02-17 08:40:00,20.1,17.4,29.26,SSW,211,10.0,25.0,89,0.00,,,0.00,VWS V14.01,2013-02-17 13:40:00,
2013-02-17 08:45:00,20.0,17.3,29.26,SSW,213,7.0,30.0,89,0.00,,,0.00,VWS V14.01,2013-02-17 13:45:00,
2013-02-17 08:50:00,19.7,16.7,29.25,SSW,199,17.0,30.0,88,0.00,,,0.00,VWS V14.01,2013-02-17 13:50:00,
2013-02-17 08:55:00,19.7,17.0,29.26,WSW,251,12.0,30.0,89,0.00,,,0.00,VWS V14.01,2013-02-17 13:55:00,
2013-02-17 09:00:00,19.7,16.7,29.26,West,259,9.0,30.0,88,0.00,,,0.00,VWS V14.01,2013-02-17 14:00:00,
2013-02-17 09:05:00,19.7,16.7,29.26,West,266,8.0,22.0,88,0.00,,,0.00,VWS V14.01,2013-02-17 14:05:00,
2013-02-17 09:10:00,20.3,18.9,29.25,North,5,4.0,23.0,94,0.00,,,0.00,VWS V14.01,2013-02-17 14:10:00,
2013-02-17 09:15:00,20.3,18.9,29.25,North,5,8.0,23.0,94,0.00,,,0.00,VWS V14.01,2013-02-17 14:15:00,
2013-02-17 09:20:00,20.4,19.0,29.26,North,5,11.0,23.0,94,0.00,,,0.00,VWS V14.01,2013-02-17 14:20:00,
2013-02-17 09:25:00,20.3,18.9,29.25,North,5,5.0,23.0,94,0.00,,,0.00,VWS V14.01,2013-02-17 14:25:00,
2013-02-17 09:30:00,20.3,18.9,29.25,North,5,4.0,23.0,94,0.00,,,0.00,VWS V14.01,2013-02-17 14:30:00,
2013-02-17 09:35:00,19.7,16.7,29.25,SW,235,11.0,20.0,88,0.00,,,0.00,VWS V14.01,2013-02-17 14:35:00,
2013-02-17 09:40:00,19.7,16.7,29.25,West,271,9.0,21.0,88,0.00,,,0.00,VWS V14.01,2013-02-17 14:40:00,
2013-02-17 09:45:00,19.7,16.5,29.25,SSW,202,7.0,24.0,87,0.00,,,0.00,VWS V14.01,2013-02-17 14:45:00,
2013-02-17 09:50:00,19.7,16.7,29.25,SSW,209,7.0,24.0,88,0.00,,,0.00,VWS V14.01,2013-02-17 14:50:00,
2013-02-17 09:55:00,19.7,16.7,29.25,South,171,7.0,28.0,88,0.00,,,0.00,VWS V14.01,2013-02-17 14:55:00,
2013-02-17 10:00:00,19.7,16.7,29.25,SW,217,6.0,28.0,88,0.00,,,0.00,VWS V14.01,2013-02-17 15:00:00,
2013-02-17 10:05:00,19.7,16.7,29.26,SW,236,8.0,17.0,88,0.00,,,0.00,VWS V14.01,2013-02-17 15:05:00,
2013-02-17 10:10:00,19.7,16.5,29.26,SSW,204,11.0,18.0,87,0.00,,,0.00,VWS V14.01,2013-02-17 15:10:00,
2013-02-17 10:15:00,19.7,16.5,29.26,SSW,195,11.0,24.0,87,0.00,,,0.00,VWS V14.01,2013-02-17 15:15:00,
2013-02-17 10:20:00,19.7,16.7,29.26,SW,225,10.0,24.0,88,0.00,,,0.00,VWS V14.01,2013-02-17 15:20:00,
2013-02-17 10:25:00,19.7,16.7,29.26,SSW,199,5.0,24.0,88,0.00,,,0.00,VWS V14.01,2013-02-17 15:25:00,
2013-02-17 10:30:00,19.7,16.5,29.26,SSE,157,15.0,24.0,87,0.00,,,0.00,VWS V14.01,2013-02-17 15:30:00,
2013-02-17 10:35:00,19.7,16.7,29.26,SW,232,13.0,24.0,88,0.00,,,0.00,VWS V14.01,2013-02-17 15:35:00,
2013-02-17 10:40:00,19.7,16.7,29.26,South,186,17.0,24.0,88,0.00,,,0.00,VWS V14.01,2013-02-17 15:40:00,
2013-02-17 10:45:00,19.7,16.7,29.26,SSW,192,6.0,26.0,88,0.00,,,0.00,VWS V14.01,2013-02-17 15:45:00,
2013-02-17 10:50:00,19.7,16.7,29.26,SSW,207,7.0,26.0,88,0.00,,,0.00,VWS V14.01,2013-02-17 15:50:00,
2013-02-17 10:55:00,19.7,16.7,29.26,South,191,7.0,26.0,88,0.00,,,0.00,VWS V14.01,2013-02-17 15:55:00,
2013-02-17 11:00:00,19.7,16.7,29.26,SSW,205,16.0,26.0,88,0.00,,,0.00,VWS V14.01,2013-02-17 16:00:00,
2013-02-17 11:05:00,19.7,16.7,29.26,SSE,162,12.0,19.0,88,0.00,,,0.00,VWS V14.01,2013-02-17 16:05:00,
2013-02-17 11:10:00,19.6,16.6,29.27,SW,231,11.0,23.0,88,0.00,,,0.00,VWS V14.01,2013-02-17 16:10:00,
2013-02-17 11:15:00,19.6,16.6,29.27,South,177,12.0,23.0,88,0.00,,,0.00,VWS V14.01,2013-02-17 16:15:00,
2013-02-17 11:20:00,19.6,16.6,29.27,SSW,206,10.0,23.0,88,0.00,,,0.00,VWS V14.01,2013-02-17 16:20:00,
2013-02-17 11:25:00,19.6,16.6,29.27,SSW,195,9.0,23.0,88,0.00,,,0.00,VWS V14.01,2013-02-17 16:25:00,
2013-02-17 11:30:00,19.6,16.6,29.27,South,188,18.0,23.0,88,0.00,,,0.00,VWS V14.01,2013-02-17 16:30:00,
2013-02-17 11:35:00,19.5,16.5,29.27,SSE,156,8.0,25.0,88,0.00,,,0.00,VWS V14.01,2013-02-17 16:35:00,
2013-02-17 11:40:00,19.7,16.7,29.27,SSW,198,11.0,28.0,88,0.00,,,0.00,VWS V14.01,2013-02-17 16:40:00,
2013-02-17 11:45:00,19.7,16.7,29.27,SSW,211,15.0,28.0,88,0.00,,,0.00,VWS V14.01,2013-02-17 16:45:00,
2013-02-17 11:50:00,19.7,16.7,29.27,South,189,17.0,28.0,88,0.00,,,0.00,VWS V14.01,2013-02-17 16:50:00,
2013-02-17 11:55:00,19.7,16.7,29.27,SW,217,11.0,28.0,88,0.00,,,0.00,VWS V14.01,2013-02-17 16:55:00,
2013-02-17 12:00:00,19.7,16.7,29.27,WSW,244,14.0,28.0,88,0.00,,,0.00,VWS V14.01,2013-02-17 17:00:00,
2013-02-17 12:05:00,19.7,16.7,29.27,South,188,19.0,23.0,88,0.00,,,0.00,VWS V14.01,2013-02-17 17:05:00,
2013-02-17 12:10:00,19.7,16.7,29.27,SSW,194,8.0,23.0,88,0.00,,,0.00,VWS V14.01,2013-02-17 17:10:00,
2013-02-17 12:15:00,20.0,17.0,29.27,SSW,195,19.0,23.0,88,0.00,,,0.00,VWS V14.01,2013-02-17 17:15:00,
2013-02-17 12:20:00,20.0,17.0,29.27,WSW,258,6.0,23.0,88,0.00,,,0.00,VWS V14.01,2013-02-17 17:20:00,
2013-02-17 12:25:00,20.1,17.1,29.27,SSE,165,16.0,23.0,88,0.00,,,0.00,VWS V14.01,2013-02-17 17:25:00,
2013-02-17 12:30:00,20.3,17.3,29.27,South,188,6.0,23.0,88,0.00,,,0.00,VWS V14.01,2013-02-17 17:30:00,
2013-02-17 12:35:00,20.4,17.4,29.27,SW,233,7.0,20.0,88,0.00,,,0.00,VWS V14.01,2013-02-17 17:35:00,
2013-02-17 12:40:00,20.5,17.5,29.27,SSW,199,7.0,20.0,88,0.00,,,0.00,VWS V14.01,2013-02-17 17:40:00,
2013-02-17 12:45:00,20.6,17.6,29.28,SW,215,13.0,21.0,88,0.00,,,0.00,VWS V14.01,2013-02-17 17:45:00,
2013-02-17 12:50:00,20.7,17.7,29.28,South,188,13.0,21.0,88,0.00,,,0.00,VWS V14.01,2013-02-17 17:50:00,
2013-02-17 12:55:00,20.8,17.8,29.28,SSW,197,12.0,21.0,88,0.00,,,0.00,VWS V14.01,2013-02-17 17:55:00,
2013-02-17 13:00:00,20.9,17.9,29.28,South,191,5.0,21.0,88,0.00,,,0.00,VWS V14.01,2013-02-17 18:00:00,
2013-02-17 13:05:00,21.0,18.0,29.29,SSW,200,17.0,19.0,88,0.00,,,0.00,VWS V14.01,2013-02-17 18:05:00,
2013-02-17 13:10:00,21.2,18.2,29.28,WSW,251,8.0,19.0,88,0.00,,,0.00,VWS V14.01,2013-02-17 18:10:00,
2013-02-17 13:15:00,21.1,17.8,29.29,SSW,203,11.0,19.0,87,0.00,,,0.00,VWS V14.01,2013-02-17 18:15:00,
2013-02-17 13:20:00,21.1,17.8,29.29,SSW,197,9.0,19.0,87,0.00,,,0.00,VWS V14.01,2013-02-17 18:20:00,
2013-02-17 13:25:00,21.1,17.8,29.29,South,171,7.0,21.0,87,0.00,,,0.00,VWS V14.01,2013-02-17 18:25:00,
2013-02-17 13:30:00,21.3,18.0,29.29,South,177,6.0,21.0,87,0.00,,,0.00,VWS V14.01,2013-02-17 18:30:00,
2013-02-17 13:35:00,21.2,17.9,29.29,SSW,194,11.0,23.0,87,0.00,,,0.00,VWS V14.01,2013-02-17 18:35:00,
2013-02-17 13:40:00,21.3,18.0,29.29,SSE,168,17.0,23.0,87,0.00,,,0.00,VWS V14.01,2013-02-17 18:40:00,
2013-02-17 13:45:00,21.4,17.9,29.29,SSE,163,12.0,23.0,86,0.00,,,0.00,VWS V14.01,2013-02-17 18:45:00,
2013-02-17 13:50:00,21.5,18.0,29.29,South,178,8.0,23.0,86,0.00,,,0.00,VWS V14.01,2013-02-17 18:50:00,
2013-02-17 13:55:00,21.6,17.2,29.30,SSW,197,14.0,30.0,83,0.00,,,0.00,VWS V14.01,2013-02-17 18:55:00,
2013-02-17 14:00:00,21.9,17.0,29.29,SSW,194,8.0,30.0,81,0.00,,,0.00,VWS V14.01,2013-02-17 19:00:00,
2013-02-17 14:05:00,22.1,16.3,29.30,SSE,153,11.0,24.0,78,0.00,,,0.00,VWS V14.01,2013-02-17 19:05:00,
2013-02-17 14:10:00,22.3,15.6,29.30,South,173,25.0,27.0,75,0.00,,,0.00,VWS V14.01,2013-02-17 19:10:00,
2013-02-17 14:15:00,22.4,14.4,29.30,SSW,200,27.0,30.0,71,0.00,,,0.00,VWS V14.01,2013-02-17 19:15:00,
2013-02-17 14:20:00,22.3,13.4,29.31,SSW,196,14.0,32.0,68,0.00,,,0.00,VWS V14.01,2013-02-17 19:20:00,
2013-02-17 14:25:00,22.6,13.3,29.31,SSW,205,6.0,32.0,67,0.00,,,0.00,VWS V14.01,2013-02-17 19:25:00,
2013-02-17 14:30:00,22.7,12.4,29.31,South,188,8.0,32.0,64,0.00,,,0.00,VWS V14.01,2013-02-17 19:30:00,
2013-02-17 14:35:00,22.7,12.0,29.31,SSE,159,14.0,25.0,63,0.00,,,0.00,VWS V14.01,2013-02-17 19:35:00,
2013-02-17 14:40:00,22.7,11.6,29.32,South,187,21.0,27.0,62,0.00,,,0.00,VWS V14.01,2013-02-17 19:40:00,
2013-02-17 14:45:00,22.5,10.4,29.31,SSE,157,13.0,29.0,59,0.00,,,0.00,VWS V14.01,2013-02-17 19:45:00,
2013-02-17 14:50:00,22.4,10.3,29.32,SSW,196,21.0,29.0,59,0.00,,,0.00,VWS V14.01,2013-02-17 19:50:00,
2013-02-17 14:55:00,22.4,10.3,29.32,SSE,157,18.0,30.0,59,0.00,,,0.00,VWS V14.01,2013-02-17 19:55:00,
2013-02-17 15:00:00,22.4,9.5,29.33,SSW,206,17.0,30.0,57,0.00,,,0.00,VWS V14.01,2013-02-17 20:00:00,
2013-02-17 15:05:00,22.3,9.4,29.33,SSW,200,20.0,31.0,57,0.00,,,0.00,VWS V14.01,2013-02-17 20:05:00,
2013-02-17 15:10:00,22.4,9.9,29.33,WSW,238,13.0,31.0,58,0.00,,,0.00,VWS V14.01,2013-02-17 20:10:00,
2013-02-17 15:15:00,22.4,9.5,29.32,SW,218,19.0,31.0,57,0.00,,,0.00,VWS V14.01,2013-02-17 20:15:00,
2013-02-17 15:20:00,22.3,8.6,29.33,SW,225,22.0,33.0,55,0.00,,,0.00,VWS V14.01,2013-02-17 20:20:00,
2013-02-17 15:25:00,22.4,9.1,29.33,South,171,18.0,33.0,56,0.00,,,0.00,VWS V14.01,2013-02-17 20:25:00,
2013-02-17 15:30:00,22.5,8.0,29.33,SSE,165,18.0,33.0,53,0.00,,,0.00,VWS V14.01,2013-02-17 20:30:00,
2013-02-17 15:35:00,22.6,8.5,29.34,SSW,212,16.0,20.0,54,0.00,,,0.00,VWS V14.01,2013-02-17 20:35:00,
2013-02-17 15:40:00,22.7,8.1,29.34,SSW,198,8.0,27.0,53,0.00,,,0.00,VWS V14.01,2013-02-17 20:40:00,
2013-02-17 15:45:00,22.7,7.3,29.34,South,174,18.0,27.0,51,0.00,,,0.00,VWS V14.01,2013-02-17 20:45:00,
2013-02-17 15:50:00,22.8,7.4,29.35,South,182,15.0,27.0,51,0.00,,,0.00,VWS V14.01,2013-02-17 20:50:00,
2013-02-17 15:55:00,22.9,7.9,29.35,SW,225,13.0,29.0,52,0.00,,,0.00,VWS V14.01,2013-02-17 20:55:00,
2013-02-17 16:00:00,22.9,7.9,29.36,South,183,11.0,29.0,52,0.00,,,0.00,VWS V14.01,2013-02-17 21:00:00,
2013-02-17 16:05:00,22.9,7.5,29.36,South,178,16.0,31.0,51,0.00,,,0.00,VWS V14.01,2013-02-17 21:05:00,
2013-02-17 16:10:00,22.9,7.5,29.36,SSE,160,14.0,32.0,51,0.00,,,0.00,VWS V14.01,2013-02-17 21:10:00,
2013-02-17 16:15:00,23.0,6.7,29.36,South,177,18.0,32.0,49,0.00,,,0.00,VWS V14.01,2013-02-17 21:15:00,
2013-02-17 16:20:00,23.0,7.1,29.36,SW,215,7.0,32.0,50,0.00,,,0.00,VWS V14.01,2013-02-17 21:20:00,
2013-02-17 16:25:00,23.1,6.3,29.37,South,188,16.0,32.0,48,0.00,,,0.00,VWS V14.01,2013-02-17 21:25:00,
2013-02-17 16:30:00,23.2,6.4,29.37,SE,142,14.0,32.0,48,0.00,,,0.00,VWS V14.01,2013-02-17 21:30:00,
2013-02-17 16:35:00,23.3,7.0,29.38,South,187,7.0,29.0,49,0.00,,,0.00,VWS V14.01,2013-02-17 21:35:00,
2013-02-17 16:40:00,23.3,6.5,29.37,SSW,199,12.0,29.0,48,0.00,,,0.00,VWS V14.01,2013-02-17 21:40:00,
2013-02-17 16:45:00,23.3,7.4,29.38,SSW,210,17.0,30.0,50,0.00,,,0.00,VWS V14.01,2013-02-17 21:45:00,
2013-02-17 16:50:00,23.4,7.1,29.38,South,186,19.0,30.0,49,0.00,,,0.00,VWS V14.01,2013-02-17 21:50:00,
2013-02-17 16:55:00,23.4,6.6,29.38,SSE,148,16.0,31.0,48,0.00,,,0.00,VWS V14.01,2013-02-17 21:55:00,
2013-02-17 17:00:00,23.5,5.3,29.39,SSW,202,12.0,31.0,45,0.00,,,0.00,VWS V14.01,2013-02-17 22:00:00,
2013-02-17 17:05:00,23.5,5.3,29.39,South,178,14.0,29.0,45,0.00,,,0.00,VWS V14.01,2013-02-17 22:05:00,
2013-02-17 17:10:00,23.6,5.9,29.40,West,273,13.0,30.0,46,0.00,,,0.00,VWS V14.01,2013-02-17 22:10:00,
2013-02-17 17:15:00,23.7,5.5,29.40,SSW,192,18.0,30.0,45,0.00,,,0.00,VWS V14.01,2013-02-17 22:15:00,
2013-02-17 17:20:00,23.8,6.1,29.40,SSW,198,11.0,30.0,46,0.00,,,0.00,VWS V14.01,2013-02-17 22:20:00,
2013-02-17 17:25:00,23.8,5.1,29.40,SSE,159,11.0,30.0,44,0.00,,,0.00,VWS V14.01,2013-02-17 22:25:00,
2013-02-17 17:30:00,24.0,9.8,29.41,North,5,6.0,30.0,54,0.00,,,0.00,VWS V14.01,2013-02-17 22:30:00,
2013-02-17 17:35:00,24.1,9.9,29.41,North,5,5.0,12.0,54,0.00,,,0.00,VWS V14.01,2013-02-17 22:35:00,
2013-02-17 17:40:00,24.2,9.6,29.41,North,5,12.0,19.0,53,0.00,,,0.00,VWS V14.01,2013-02-17 22:40:00,
2013-02-17 17:45:00,24.3,9.2,29.41,North,5,6.0,19.0,52,0.00,,,0.00,VWS V14.01,2013-02-17 22:45:00,
2013-02-17 17:50:00,24.4,9.7,29.42,North,5,11.0,23.0,53,0.00,,,0.00,VWS V14.01,2013-02-17 22:50:00,
2013-02-17 17:55:00,24.4,9.7,29.42,North,5,7.0,23.0,53,0.00,,,0.00,VWS V14.01,2013-02-17 22:55:00,
2013-02-17 18:00:00,24.5,9.4,29.42,North,5,10.0,23.0,52,0.00,,,0.00,VWS V14.01,2013-02-17 23:00:00,
2013-02-17 18:05:00,24.6,9.1,29.43,North,5,5.0,14.0,51,0.00,,,0.00,VWS V14.01,2013-02-17 23:05:00,
2013-02-17 18:10:00,24.7,9.6,29.43,North,5,10.0,16.0,52,0.00,,,0.00,VWS V14.01,2013-02-17 23:10:00,
2013-02-17 18:15:00,24.7,9.6,29.43,North,5,4.0,16.0,52,0.00,,,0.00,VWS V14.01,2013-02-17 23:15:00,
2013-02-17 18:20:00,24.7,9.2,29.44,North,5,10.0,16.0,51,0.00,,,0.00,VWS V14.01,2013-02-17 23:20:00,
2013-02-17 18:25:00,24.8,9.2,29.43,North,5,7.0,16.0,51,0.00,,,0.00,VWS V14.01,2013-02-17 23:25:00,
2013-02-17 18:30:00,24.8,9.2,29.44,North,5,6.0,16.0,51,0.00,,,0.00,VWS V14.01,2013-02-17 23:30:00,
2013-02-17 18:35:00,24.8,8.8,29.44,North,5,10.0,16.0,50,0.00,,,0.00,VWS V14.01,2013-02-17 23:35:00,
2013-02-17 18:40:00,24.8,8.8,29.44,North,5,8.0,16.0,50,0.00,,,0.00,VWS V14.01,2013-02-17 23:40:00,
2013-02-17 18:45:00,25.0,8.6,29.45,North,5,7.0,21.0,49,0.00,,,0.00,VWS V14.01,2013-02-17 23:45:00,
2013-02-17 18:50:00,24.9,8.9,29.45,North,5,5.0,21.0,50,0.00,,,0.00,VWS V14.01,2013-02-17 23:50:00,
2013-02-17 18:55:00,24.9,8.0,29.45,North,5,6.0,21.0,48,0.00,,,0.00,VWS V14.01,2013-02-17 23:55:00,
2013-02-17 19:00:00,25.0,8.1,29.45,North,5,9.0,25.0,48,0.00,,,0.00,VWS V14.01,2013-02-18 00:00:00,
2013-02-17 19:05:00,25.1,8.2,29.45,North,5,10.0,18.0,48,0.00,,,0.00,VWS V14.01,2013-02-18 00:05:00,
2013-02-17 19:10:00,25.1,8.2,29.45,North,5,5.0,20.0,48,0.00,,,0.00,VWS V14.01,2013-02-18 00:10:00,
2013-02-17 19:15:00,25.0,8.1,29.45,North,5,11.0,20.0,48,0.00,,,0.00,VWS V14.01,2013-02-18 00:15:00,
2013-02-17 19:20:00,24.9,8.0,29.45,North,5,6.0,20.0,48,0.00,,,0.00,VWS V14.01,2013-02-18 00:20:00,
2013-02-17 19:25:00,24.9,8.0,29.45,North,5,10.0,20.0,48,0.00,,,0.00,VWS V14.01,2013-02-18 00:25:00,
2013-02-17 19:30:00,24.9,8.0,29.46,North,5,6.0,20.0,48,0.00,,,0.00,VWS V14.01,2013-02-18 00:30:00,
2013-02-17 19:35:00,24.9,8.0,29.46,North,5,7.0,10.0,48,0.00,,,0.00,VWS V14.01,2013-02-18 00:35:00,
2013-02-17 19:40:00,24.9,7.1,29.46,North,5,3.0,17.0,46,0.00,,,0.00,VWS V14.01,2013-02-18 00:40:00,
2013-02-17 19:45:00,24.9,7.1,29.47,North,5,6.0,17.0,46,0.00,,,0.00,VWS V14.01,2013-02-18 00:45:00,
2013-02-17 19:50:00,24.9,7.5,29.47,North,5,8.0,17.0,47,0.00,,,0.00,VWS V14.01,2013-02-18 00:50:00,
2013-02-17 19:55:00,24.8,7.4,29.47,North,5,3.0,17.0,47,0.00,,,0.00,VWS V14.01,2013-02-18 00:55:00,
2013-02-17 20:00:00,24.8,7.0,29.47,North,5,6.0,17.0,46,0.00,,,0.00,VWS V14.01,2013-02-18 01:00:00,
2013-02-17 20:05:00,24.8,7.0,29.47,North,5,7.0,13.0,46,0.00,,,0.00,VWS V14.01,2013-02-18 01:05:00,
2013-02-17 20:10:00,24.7,6.4,29.48,North,5,5.0,13.0,45,0.00,,,0.00,VWS V14.01,2013-02-18 01:10:00,
2013-02-17 20:15:00,24.6,6.8,29.48,North,5,5.0,14.0,46,0.00,,,0.00,VWS V14.01,2013-02-18 01:15:00,
2013-02-17 20:20:00,24.5,6.2,29.48,North,5,6.0,19.0,45,0.00,,,0.00,VWS V14.01,2013-02-18 01:20:00,
2013-02-17 20:25:00,24.4,6.6,29.48,North,5,4.0,19.0,46,0.00,,,0.00,VWS V14.01,2013-02-18 01:25:00,
2013-02-17 20:30:00,24.2,7.8,29.49,North,5,3.0,19.0,49,0.00,,,0.00,VWS V14.01,2013-02-18 01:30:00,
2013-02-17 20:35:00,23.9,8.0,29.49,North,5,5.0,9.0,50,0.00,,,0.00,VWS V14.01,2013-02-18 01:35:00,
2013-02-17 20:40:00,23.6,8.1,29.49,North,5,10.0,15.0,51,0.00,,,0.00,VWS V14.01,2013-02-18 01:40:00,
2013-02-17 20:45:00,23.4,7.9,29.49,North,5,7.0,15.0,51,0.00,,,0.00,VWS V14.01,2013-02-18 01:45:00,
2013-02-17 20:50:00,23.0,7.6,29.50,South,190,13.0,19.0,51,0.00,,,0.00,VWS V14.01,2013-02-18 01:50:00,
2013-02-17 20:55:00,22.8,4.2,29.50,SSW,199,10.0,20.0,44,0.00,,,0.00,VWS V14.01,2013-02-18 01:55:00,
2013-02-17 21:00:00,22.7,4.6,29.51,SSE,161,12.0,22.0,45,0.00,,,0.00,VWS V14.01,2013-02-18 02:00:00,
2013-02-17 21:05:00,22.4,4.8,29.51,SSE,153,18.0,21.0,46,0.00,,,0.00,VWS V14.01,2013-02-18 02:05:00,
2013-02-17 21:10:00,22.2,5.1,29.51,South,187,11.0,21.0,47,0.00,,,0.00,VWS V14.01,2013-02-18 02:10:00,
2013-02-17 21:15:00,22.0,5.3,29.51,South,172,6.0,22.0,48,0.00,,,0.00,VWS V14.01,2013-02-18 02:15:00,
2013-02-17 21:20:00,21.9,4.8,29.51,SSE,151,10.0,22.0,47,0.00,,,0.00,VWS V14.01,2013-02-18 02:20:00,
2013-02-17 21:25:00,21.7,5.1,29.52,South,171,12.0,22.0,48,0.00,,,0.00,VWS V14.01,2013-02-18 02:25:00,
2013-02-17 21:30:00,21.5,3.9,29.52,SSE,167,12.0,22.0,46,0.00,,,0.00,VWS V14.01,2013-02-18 02:30:00,
2013-02-17 21:35:00,21.3,4.2,29.52,South,188,10.0,21.0,47,0.00,,,0.00,VWS V14.01,2013-02-18 02:35:00,
2013-02-17 21:40:00,21.2,4.6,29.53,SSE,156,8.0,24.0,48,0.00,,,0.00,VWS V14.01,2013-02-18 02:40:00,
2013-02-17 21:45:00,21.1,4.5,29.53,SE,144,14.0,24.0,48,0.00,,,0.00,VWS V14.01,2013-02-18 02:45:00,
2013-02-17 21:50:00,20.9,4.8,29.53,SSW,196,13.0,24.0,49,0.00,,,0.00,VWS V14.01,2013-02-18 02:50:00,
2013-02-17 21:55:00,20.7,4.6,29.53,SE,146,19.0,24.0,49,0.00,,,0.00,VWS V14.01,2013-02-18 02:55:00,
2013-02-17 22:00:00,20.7,4.6,29.54,SSE,155,20.0,24.0,49,0.00,,,0.00,VWS V14.01,2013-02-18 03:00:00,
2013-02-17 22:05:00,20.6,4.5,29.54,SSE,161,8.0,20.0,49,0.00,,,0.00,VWS V14.01,2013-02-18 03:05:00,
2013-02-17 22:10:00,20.5,4.8,29.54,South,173,10.0,20.0,50,0.00,,,0.00,VWS V14.01,2013-02-18 03:10:00,
2013-02-17 22:15:00,20.4,4.3,29.54,SSW,200,13.0,20.0,49,0.00,,,0.00,VWS V14.01,2013-02-18 03:15:00,
2013-02-17 22:20:00,20.4,3.8,29.55,SSW,205,13.0,20.0,48,0.00,,,0.00,VWS V14.01,2013-02-18 03:20:00,
2013-02-17 22:25:00,20.3,3.8,29.55,SSE,153,12.0,23.0,48,0.00,,,0.00,VWS V14.01,2013-02-18 03:25:00,
2013-02-17 22:30:00,20.3,4.2,29.55,South,185,10.0,23.0,49,0.00,,,0.00,VWS V14.01,2013-02-18 03:30:00,
2013-02-17 22:35:00,20.2,3.2,29.55,SSE,153,12.0,25.0,47,0.00,,,0.00,VWS V14.01,2013-02-18 03:35:00,
2013-02-17 22:40:00,20.0,3.5,29.55,SSE,168,7.0,25.0,48,0.00,,,0.00,VWS V14.01,2013-02-18 03:40:00,
2013-02-17 22:45:00,19.8,3.3,29.56,SW,224,22.0,28.0,48,0.00,,,0.00,VWS V14.01,2013-02-18 03:45:00,
2013-02-17 22:50:00,19.7,2.8,29.56,South,183,13.0,28.0,47,0.00,,,0.00,VWS V14.01,2013-02-18 03:50:00,
2013-02-17 22:55:00,19.7,3.7,29.56,SSW,211,16.0,28.0,49,0.00,,,0.00,VWS V14.01,2013-02-18 03:55:00,
2013-02-17 23:00:00,19.7,3.2,29.57,SE,144,13.0,28.0,48,0.00,,,0.00,VWS V14.01,2013-02-18 04:00:00,
2013-02-17 23:05:00,19.9,5.9,29.57,North,5,11.0,14.0,54,0.00,,,0.00,VWS V14.01,2013-02-18 04:05:00,
2013-02-17 23:10:00,19.8,6.7,29.57,North,5,10.0,14.0,56,0.00,,,0.00,VWS V14.01,2013-02-18 04:10:00,
2013-02-17 23:15:00,19.6,6.1,29.57,North,5,11.0,15.0,55,0.00,,,0.00,VWS V14.01,2013-02-18 04:15:00,
2013-02-17 23:20:00,19.5,6.0,29.57,North,5,6.0,15.0,55,0.00,,,0.00,VWS V14.01,2013-02-18 04:20:00,
2013-02-17 23:25:00,19.4,6.3,29.58,North,5,7.0,17.0,56,0.00,,,0.00,VWS V14.01,2013-02-18 04:25:00,
2013-02-17 23:30:00,19.4,6.3,29.58,North,5,5.0,17.0,56,0.00,,,0.00,VWS V14.01,2013-02-18 04:30:00,
2013-02-17 23:35:00,19.3,6.2,29.58,North,5,15.0,18.0,56,0.00,,,0.00,VWS V14.01,2013-02-18 04:35:00,
2013-02-17 23:40:00,19.2,5.7,29.59,North,5,7.0,18.0,55,0.00,,,0.00,VWS V14.01,2013-02-18 04:40:00,
2013-02-17 23:45:00,19.1,5.6,29.59,North,5,10.0,18.0,55,0.00,,,0.00,VWS V14.01,2013-02-18 04:45:00,
2013-02-17 23:50:00,19.1,5.6,29.59,North,5,10.0,18.0,55,0.00,,,0.00,VWS V14.01,2013-02-18 04:50:00,
2013-02-17 23:55:00,19.0,5.9,29.59,North,5,6.0,18.0,56,0.00,,,0.00,VWS V14.01,2013-02-18 04:55:00,